Weather in Yasenivskyi

Ukraine / Luhansk Region     48°09′37″N   39°13′03″E
temp.,
°C
wind,
m/s
gust,
m/s
humid.,
%
clouds,
%
prec.,
mm/h
press.,
hPa
HPBL,
m
12 may, wed
wed1200:00+6se91391100 0.2 1016878
03:00+7ese71193100 0.4 1016868
06:00+6ese71194100 0.1 1018847
09:00+7se51092100 1.5 10181005
12:00+9se588478 0.2 1017733
15:00+13sse686389 0.4 10161435
18:00+12sse487657 0.3 1016641
21:00+11ese3786100 0.4 1015184
13 may, thu
thu1300:00+11se288698 0.1 1014220
03:00+9sse1190100 0.1 101511
06:00+10ese238893 0.0 101591
09:00+17sse58675 0.0 1014585
12:00+20sse56545 0.0 10141295
15:00+22sse455092 0.0 10141496
18:00+20se3668100 0.0 1014227
21:00+16se348587 0.0 101452
14 may, fri
fri1400:00+15ese33870 0.0 101434
03:00+13ese33885 0.0 101338
06:00+14se311855 0.0 1013241
09:00+21se6106099 0.0 1013538
12:00+25se7950100 0.0 1012760
15:00+26se67485 0.0 1012941
18:00+24se58635 0.0 1011466
21:00+18sse338614 0.0 101135
15 may, sat
sat1500:00+17sse33896 0.0 101127
03:00+16sse228987 0.0 101013
06:00+17ssw239192 0.1 1012100
09:00+23sse226753 0.1 1012533
12:00+26sw2348100 0.0 10121393
15:00+26sw344664 0.0 10121588
18:00+25wsw235535 0.0 1012177
21:00+19nw226554 0.0 101211
16 may, sun
sun1600:00+17n227552 0.0 101213
03:00+16nne23835 0.0 101238
06:00+16nne368728 0.0 1012149
09:00+22ne45685 0.0 1011518
12:00+25e56547 0.0 1010998
15:00+26ese78395 0.0 10091257
18:00+24e59535 0.0 1008516
21:00+19ene41166100 0.0 1007178